Location: Usti nad Labem
(50.6670°N, 14.0330°E)
Time: 22:38:09
(UTC+01:00)

Envisat - Pass Details

Date: 10 December 2020
Orbit: 764 x 766 km, 98.1° (Epoch: 15 January)

Event Time Altitude Azimuth Distance (km) Brightness Sun altitude
Rises 17:01:26 0° 169° (SSE) 3,221 6.4 -9.3°
Reaches altitude 10° 17:03:44 10° 171° (S) 2,299 5.7 -9.7°
Maximum altitude 17:08:48 75° 256° (WSW) 797 3.3 -10.4°
Drops below altitude 10° 17:13:55 10° 343° (NNW) 2,316 5.4 -11.1°
Sets 17:16:14 0° 345° (NNW) 3,247 6.2 -11.5°
